Vorticity
5 1 3 9 -2 7 10 38 -5 5 6 10 11 6 3 1 2 3 3 7 3 5 5 4 4 6 10 10 9 8 6 5 7 6 4 5 8 8 10 2 2 4 4
16 8 4 -1 8 6 -9 -6 41 -3 8 8 10 3 2 4 3 3 4 7 6 5 4 5 5 6 5 4 5 5 5 5 4 4 4 5 7 10 8 3 2 4 4
12 15 9 4 4 12 43 44 -17 -1 -0 9 6 3 2 4 3 3 6 4 4 3 2 1 1 1 3 5 6 6 6 6 5 4 4 6 8 9 8 3 2 4 4
15 18 8 7 11 -4 59 -19 8 11 -2 7 5 1 4 3 2 4 3 2 3 2 3 4 4 5 6 6 3 4 4 4 5 5 5 5 6 8 8 6 3 3 4
22 12 9 12 5 -8 -44 50 65 13 -2 8 8 2 4 2 2 4 3 2 4 3 3 3 5 5 3 4 5 5 5 5 4 5 6 5 6 7 8 6 4 3 3
27 12 9 5 11 7 11 -8 8 44 15 -1 1 5 1 6 2 4 3 4 2 1 3 2 3 4 2 3 4 3 4 5 6 6 6 6 7 7 8 8 6 3 3
24 25 21 12 11 14 12 8 -32 -16 26 15 -5 9 -32 44 3 5 4 4 1 3 2 4 3 3 4 3 2 4 5 3 2 2 3 4 5 6 7 9 7 4 3
21 20 16 20 22 8 10 5 4 -26 8 23 33 3 12 -3 2 4 6 5 2 -0 2 3 4 1 2 4 4 4 4 3 2 3 -2 0 3 6 6 7 9 6 5
12 17 15 13 17 19 5 6 30 12 5 1 -8 5 68 -13 52 -2 8 3 3 4 0 3 3 2 3 2 3 2 3 6 4 6 7 10 4 6 6 7 8 7 5
15 12 15 17 13 14 18 11 5 2 2 5 6 0 7 12 37 28 -7 2 2 3 6 3 -2 2 3 2 2 1 2 4 7 3 5 2 6 13 8 5 5 8 6
14 20 11 11 19 20 12 14 13 7 14 18 16 15 20 3 32 26 56 -3 -0 -3 5 6 3 7 2 -1 -2 3 7 5 10 12 8 2 0 4 1 5 7 8 6
18 9 19 13 8 12 27 18 15 17 14 10 10 14 9 17 6 28 17 29 7 30 -1 -3 2 12 2 -2 -8 11 9 2 1 1 5 4 5 4 7 6 8 7 7
12 18 17 10 14 7 12 18 23 15 15 10 6 8 7 0 25 14 1 4 2 20 27 33 33 23 12 12 25 2 -1 2 3 4 6 3 3 7 10 4 5 7 10
11 12 12 10 17 13 10 12 14 19 13 20 17 -0 19 18 -12 -4 7 36 24 25 7 5 6 -8 31 29 -11 2 8 6 5 3 2 6 3 6 6 6 7 6 7
9 12 20 16 12 7 13 15 12 15 14 18 21 7 -3 11 -12 10 9 18 8 4 -37 10 13 -4 3 28 -9 20 -7 13 7 2 2 2 1 7 5 3 7 10 4
6 -2 8 21 13 16 8 13 11 12 12 20 20 17 14 7 7 17 1 11 -14 14 12 19 -3 36 15 12 14 14 -2 18 6 -3 2 4 8 13 10 8 12 7 6
8 9 10 9 17 16 9 10 12 8 16 10 22 26 12 5 -21 -9 23 11 49 33 -11 -1 16 28 4 -3 3 3 20 9 -8 14 3 8 16 12 8 4 5 5 5
8 4 3 6 11 20 16 14 12 13 7 16 9 17 35 9 -1 9 -5 57 -32 26 -15 7 -16 33 22 -10 6 22 8 23 8 5 6 6 5 5 7 5 6 4 9
6 7 12 6 -0 9 16 17 10 15 12 8 14 10 14 40 29 -5 -11 -16 -3 32 16 38 43 -13 36 18 10 2 24 42 8 -2 9 11 11 9 5 7 7 10 13
4 8 10 14 7 7 4 15 20 12 18 12 8 14 11 1 13 36 18 23 -2 -16 -21 28 14 36 30 7 23 3 37 -2 -10 14 6 11 11 9 4 9 10 4 5
11 10 8 16 15 6 8 12 14 15 13 17 15 9 11 9 7 8 11 33 14 20 16 15 -6 38 -12 -34 -22 -27 9 5 11 12 11 8 -0 10 6 12 14 6 7
12 12 15 13 15 15 14 12 9 11 11 15 21 20 12 12 8 5 6 6 7 6 10 8 5 1 12 7 15 26 17 11 13 1 2 10 2 10 3 4 7 6 6
14 15 12 15 7 19 15 6 9 9 7 7 7 11 15 14 13 12 9 7 7 7 7 8 7 5 6 12 7 9 9 12 7 6 5 11 10 9 5 9 8 9 14
16 13 11 11 11 7 -3 16 8 7 10 11 11 10 7 7 9 11 14 15 15 14 13 13 15 15 14 11 10 9 5 6 7 7 5 3 9 11 12 11 15 16 16
17 11 30 11 8 5 12 -1 14 22 18 12 10 8 8 9 10 10 10 10 10 9 9 8 8 8 8 8 7 7 9 10 7 7 9 9 8 7 14 19 15 18 14
17 10 8 20 24 24 26 23 10 0 14 -0 2 8 10 8 7 6 6 6 8 8 9 9 10 11 11 11 10 11 11 10 10 12 19 25 24 17 15 19 17 12 11
Height
5697 5704 5711 5718 5726 5730 5736 5743 5751 5757 5763 5769 5776 5784 5790 5795 5798 5803 5808 5812 5815 5818 5821 5822 5823 5824 5826 5827 5828 5829 5830 5830 5830 5831 5830 5830 5830 5830 5829 5828 5827 5825 5823
5688 5696 5703 5708 5716 5724 5731 5736 5739 5749 5755 5763 5770 5776 5779 5786 5791 5797 5803 5807 5809 5812 5815 5817 5818 5820 5821 5823 5824 5825 5825 5826 5826 5826 5826 5826 5826 5825 5824 5824 5823 5821 5819
5679 5687 5695 5702 5710 5713 5720 5723 5725 5737 5745 5754 5762 5767 5772 5779 5787 5793 5796 5798 5802 5806 5809 5811 5813 5815 5816 5818 5819 5820 5820 5821 5821 5821 5822 5821 5820 5819 5819 5819 5818 5817 5814
5672 5679 5686 5695 5705 5708 5709 5716 5716 5726 5737 5746 5754 5760 5767 5775 5780 5782 5785 5790 5796 5799 5802 5805 5807 5809 5810 5812 5813 5814 5815 5815 5815 5816 5816 5815 5814 5813 5813 5813 5812 5811 5809
5662 5670 5678 5686 5695 5700 5702 5711 5712 5718 5727 5736 5744 5753 5760 5767 5771 5774 5779 5785 5790 5792 5795 5798 5800 5802 5804 5805 5807 5807 5808 5809 5809 5809 5809 5808 5808 5807 5807 5806 5805 5804 5803
5654 5662 5668 5675 5684 5692 5698 5704 5705 5710 5719 5728 5737 5744 5752 5757 5762 5766 5772 5777 5781 5784 5787 5790 5793 5795 5797 5798 5800 5800 5801 5802 5803 5802 5802 5802 5801 5800 5800 5799 5799 5797 5796
5647 5654 5660 5667 5676 5683 5690 5696 5698 5706 5713 5721 5729 5737 5742 5741 5752 5757 5762 5767 5772 5776 5778 5780 5784 5787 5789 5790 5792 5793 5793 5794 5795 5796 5796 5795 5794 5794 5793 5792 5791 5790 5788
5639 5646 5652 5657 5664 5675 5680 5687 5691 5700 5707 5714 5723 5727 5733 5737 5742 5749 5753 5757 5763 5767 5770 5772 5775 5778 5781 5782 5783 5785 5785 5786 5786 5787 5788 5788 5787 5786 5786 5785 5783 5783 5781
5635 5638 5644 5649 5656 5663 5671 5676 5682 5688 5696 5705 5712 5719 5726 5729 5733 5738 5745 5749 5753 5757 5760 5764 5765 5768 5772 5773 5775 5776 5777 5777 5778 5779 5779 5779 5779 5778 5778 5776 5776 5773 5773
5630 5633 5636 5640 5645 5651 5659 5665 5672 5678 5686 5694 5704 5709 5714 5719 5722 5728 5733 5738 5742 5747 5750 5753 5755 5758 5762 5763 5764 5765 5767 5768 5768 5769 5769 5769 5769 5768 5767 5767 5766 5765 5763
5625 5626 5629 5632 5636 5641 5646 5653 5660 5666 5674 5682 5690 5698 5702 5707 5709 5717 5724 5728 5729 5735 5739 5741 5744 5748 5749 5752 5753 5754 5756 5757 5757 5757 5758 5759 5759 5757 5757 5756 5756 5755 5753
5618 5621 5623 5624 5628 5632 5635 5640 5647 5655 5663 5668 5673 5682 5688 5692 5700 5707 5714 5718 5723 5725 5726 5727 5732 5736 5737 5739 5742 5743 5745 5745 5746 5747 5746 5746 5747 5746 5746 5744 5743 5742 5741
5611 5613 5616 5618 5618 5622 5626 5628 5632 5639 5645 5654 5660 5669 5675 5680 5689 5693 5697 5708 5709 5710 5712 5716 5720 5723 5725 5727 5726 5730 5732 5733 5734 5735 5735 5735 5735 5735 5734 5733 5732 5730 5728
5602 5604 5606 5608 5611 5613 5616 5619 5622 5626 5632 5639 5647 5654 5663 5671 5676 5681 5685 5689 5693 5700 5701 5704 5706 5709 5710 5714 5716 5717 5718 5719 5721 5723 5722 5722 5722 5722 5722 5721 5719 5719 5717
5596 5596 5598 5599 5602 5604 5606 5611 5614 5616 5620 5626 5635 5643 5649 5658 5663 5666 5674 5677 5677 5683 5687 5692 5693 5696 5697 5699 5700 5701 5703 5706 5707 5708 5708 5709 5709 5709 5710 5709 5708 5706 5704
5586 5589 5590 5590 5591 5596 5600 5602 5605 5608 5611 5615 5620 5626 5634 5641 5649 5654 5662 5663 5666 5674 5677 5679 5677 5678 5683 5683 5683 5686 5688 5690 5691 5694 5695 5695 5695 5695 5695 5695 5694 5692 5692
5576 5579 5583 5583 5581 5585 5589 5593 5596 5599 5602 5606 5611 5616 5622 5628 5634 5641 5644 5650 5656 5661 5663 5664 5668 5668 5671 5671 5670 5673 5674 5675 5677 5678 5680 5681 5681 5681 5681 5681 5679 5677 5676
5568 5570 5573 5576 5575 5576 5579 5583 5586 5588 5592 5595 5600 5603 5608 5615 5619 5624 5626 5636 5641 5644 5645 5651 5654 5655 5655 5658 5659 5658 5659 5661 5662 5664 5666 5668 5669 5669 5668 5666 5663 5662 5662
5558 5560 5563 5567 5568 5568 5570 5572 5575 5579 5581 5585 5588 5593 5598 5601 5604 5606 5610 5612 5619 5626 5633 5632 5634 5640 5642 5638 5644 5646 5645 5646 5646 5649 5652 5653 5654 5655 5655 5653 5650 5650 5648
5546 5549 5551 5555 5558 5560 5561 5563 5565 5569 5574 5576 5579 5582 5587 5591 5595 5598 5599 5602 5607 5612 5614 5617 5620 5623 5627 5627 5631 5631 5630 5632 5631 5634 5636 5637 5638 5639 5638 5637 5637 5635 5634
5536 5538 5540 5543 5546 5549 5552 5555 5557 5559 5562 5566 5570 5572 5575 5579 5584 5588 5591 5592 5595 5599 5603 5603 5606 5609 5611 5610 5615 5615 5614 5615 5617 5620 5622 5623 5623 5624 5624 5623 5621 5619 5617
5524 5527 5530 5532 5535 5539 5542 5545 5548 5550 5553 5555 5558 5562 5565 5568 5571 5574 5577 5581 5583 5587 5591 5592 5593 5597 5597 5598 5600 5601 5603 5603 5606 5607 5605 5606 5609 5608 5608 5606 5605 5604 5600
5513 5515 5518 5522 5525 5528 5531 5535 5538 5540 5543 5546 5549 5552 5555 5558 5561 5563 5565 5569 5572 5575 5578 5580 5581 5582 5582 5585 5586 5586 5589 5589 5589 5590 5590 5590 5591 5591 5592 5591 5589 5586 5583
5501 5504 5506 5510 5515 5519 5522 5525 5528 5531 5534 5537 5541 5543 5545 5547 5550 5553 5555 5558 5560 5563 5564 5566 5568 5569 5570 5572 5573 5573 5574 5574 5576 5575 5575 5575 5577 5578 5577 5574 5571 5568 5566
5492 5494 5497 5501 5504 5508 5513 5516 5519 5522 5524 5526 5528 5530 5532 5534 5537 5540 5542 5545 5547 5549 5551 5553 5555 5557 5558 5559 5559 5561 5562 5562 5562 5561 5561 5562 5562 5561 5559 5556 5553 5552 5550
5481 5485 5488 5491 5494 5498 5502 5505 5508 5511 5514 5515 5516 5518 5520 5522 5524 5527 5529 5531 5534 5536 5538 5539 5541 5542 5544 5544 5545 5547 5547 5546 5546 5545 5546 5546 5544 5542 5541 5539 5537 5536 5536